Wetbulb
35.74 37.52 38.53 38.22 38.14 37.88 38.75 39.45 39.23 38.26 37.82 37.09 36.28 35.53 35.11 35.53 35.66 36.96 38.30 37.86 37.65 36.89 34.75 33.74 33.18 32.72 31.58 30.64 31.29 30.53 29.54 29.35 31.35 29.71 30.60 32.26 36.03 34.59 35.35 37.65 36.11 36.39 36.09
34.12 36.12 36.88 36.86 37.51 36.96 37.57 37.99 38.74 37.99 38.56 38.67 37.86 37.34 36.24 35.74 36.24 37.00 37.06 37.61 37.21 36.49 35.24 33.37 32.56 31.98 31.35 30.76 29.88 29.17 28.63 28.97 30.13 27.94 27.97 26.91 30.89 31.74 33.89 34.80 36.05 33.97 34.67
33.63 35.02 35.72 35.52 35.52 35.61 35.93 37.82 38.82 39.28 39.23 38.71 37.92 37.17 37.05 36.35 35.66 35.37 35.57 36.88 36.91 36.44 35.24 33.71 32.46 31.58 31.23 30.04 29.23 28.73 28.44 27.32 28.40 29.92 26.85 25.13 24.39 26.97 31.78 32.00 33.87 32.83 33.10
33.37 34.99 35.09 34.26 34.72 35.24 35.70 38.70 39.17 39.01 38.75 38.39 37.40 36.01 35.03 34.49 35.42 35.45 35.86 35.98 36.12 35.26 35.70 34.64 32.80 31.65 31.19 29.70 29.38 30.92 28.70 27.51 26.90 28.52 31.68 28.67 28.13 25.73 25.45 29.98 31.55 32.13 32.65
33.06 34.35 34.46 35.33 35.25 35.53 36.51 37.64 38.30 38.30 37.66 37.20 36.82 35.55 34.68 34.49 34.50 34.13 33.77 33.63 34.08 34.56 34.56 34.05 32.56 31.58 30.91 29.47 28.88 28.49 28.08 28.38 26.85 27.26 27.42 27.71 28.22 27.84 26.94 25.07 27.01 29.86 31.77
31.02 33.59 34.21 34.87 34.65 36.08 36.40 36.61 37.26 37.04 36.88 35.96 35.15 34.73 34.32 33.91 33.09 32.62 32.18 32.43 32.50 32.45 32.84 34.03 32.31 31.14 30.09 29.19 28.96 28.40 27.57 27.22 27.32 27.26 27.36 27.16 26.16 26.97 25.75 24.81 25.40 25.94 28.85
30.30 31.55 33.07 33.62 34.98 35.91 36.03 36.52 36.77 36.02 35.87 35.20 34.53 33.70 32.85 32.33 31.86 31.17 30.99 31.33 31.14 30.75 31.04 31.47 31.10 30.13 29.96 29.67 29.17 28.15 27.39 26.97 26.40 26.34 26.58 27.89 28.09 28.93 28.02 26.89 26.03 26.22 28.29
30.22 30.68 31.71 33.59 35.35 36.42 36.24 36.51 36.02 35.40 35.33 34.92 34.38 33.52 32.79 31.75 31.60 31.66 31.41 30.90 30.52 30.70 31.13 31.00 30.95 30.60 30.26 29.36 28.56 27.72 27.41 27.09 27.07 25.95 26.18 27.14 27.68 28.80 28.76 28.50 26.73 24.72 27.04
33.37 31.94 33.83 35.00 35.99 36.37 36.55 36.49 36.16 35.53 35.49 34.87 34.19 33.62 33.46 33.32 32.49 32.29 31.62 31.08 31.12 32.58 31.78 30.63 30.14 29.94 29.23 28.95 28.10 26.90 26.57 26.60 26.64 26.77 26.66 26.05 27.33 28.08 28.51 28.96 28.72 26.97 23.60
33.34 32.53 33.15 34.89 36.37 37.07 36.63 36.12 35.57 34.68 34.45 33.83 33.83 33.82 33.75 34.16 34.14 33.66 32.98 32.92 32.92 32.15 31.42 30.81 30.34 30.06 29.66 28.78 27.62 26.66 26.74 25.88 26.43 27.09 25.78 25.82 26.70 27.27 27.66 28.66 28.29 28.16 26.95
31.52 31.54 32.28 33.99 35.16 34.35 34.27 34.08 33.93 33.14 32.43 32.97 33.45 33.86 34.17 34.69 34.15 32.91 33.01 32.65 32.47 32.03 31.23 30.98 30.31 30.08 29.68 29.16 27.66 26.59 26.23 25.86 25.82 25.70 25.55 26.19 26.65 26.19 26.62 27.45 27.77 27.28 27.57
30.96 30.70 31.39 31.55 31.32 31.50 31.68 31.47 31.57 31.74 32.00 32.61 32.73 32.49 32.92 32.55 31.42 31.68 31.96 32.23 31.21 31.70 31.27 31.01 30.47 30.16 29.83 29.09 27.70 26.72 27.42 25.94 25.41 25.86 25.41 25.76 28.75 26.22 25.98 26.06 26.45 26.90 27.14
28.78 29.31 29.88 31.26 31.27 31.98 32.49 33.19 33.24 32.17 32.50 33.10 31.93 31.03 30.63 29.84 29.43 29.97 30.64 31.01 30.86 30.75 31.01 30.59 29.61 29.24 29.23 28.71 27.82 27.34 26.87 26.07 25.69 25.65 25.17 25.67 25.27 25.66 25.55 25.40 25.57 26.47 28.15
29.98 30.37 29.76 29.80 30.02 31.21 31.55 31.38 31.89 31.75 30.90 30.41 29.68 27.76 27.67 28.06 28.25 28.65 28.94 29.20 29.59 28.73 28.32 28.41 28.56 28.59 28.47 28.51 27.96 27.53 26.72 26.05 26.96 27.25 26.77 25.74 25.77 25.64 26.03 26.29 25.79 26.11 25.93
29.77 29.89 27.60 28.46 30.29 30.76 31.15 29.93 29.00 28.64 28.54 27.68 26.72 26.33 27.33 28.01 27.96 27.44 27.40 27.59 27.67 27.86 27.49 27.38 27.10 27.01 27.45 28.82 27.57 27.75 27.18 26.96 26.41 26.70 27.44 27.60 28.67 31.30 30.64 27.60 25.72 25.40 25.37
28.02 25.43 28.52 29.62 28.80 28.08 28.19 27.30 26.81 27.29 27.21 25.92 24.95 26.04 26.14 26.21 25.86 25.87 25.98 26.21 26.37 26.26 26.25 26.20 26.49 26.52 28.02 31.22 32.23 31.70 29.38 28.95 28.33 27.23 27.27 26.93 30.43 31.34 34.24 34.64 34.89 31.85 25.65
25.52 22.67 19.93 21.64 23.67 23.28 24.04 21.71 25.23 25.51 24.32 23.76 24.22 24.69 24.97 24.42 24.42 24.66 24.43 24.80 24.61 24.54 24.25 24.94 25.39 25.34 25.63 30.28 31.22 31.94 29.42 28.52 27.87 27.42 27.79 29.06 30.19 30.87 29.28 31.29 33.66 34.19 35.44
17.21 16.33 14.45 14.68 20.63 21.13 22.21 23.68 24.21 20.66 22.49 22.35 22.51 23.26 23.16 23.26 23.08 22.94 23.47 22.93 22.91 22.69 23.30 23.78 24.17 24.29 25.50 29.79 30.91 31.46 28.50 27.56 26.61 26.23 26.00 25.98 26.83 28.74 30.02 29.52 28.12 27.73 28.63
26.50 29.07 28.79 25.38 13.07 16.97 18.38 19.17 21.01 20.87 20.76 20.63 21.17 21.45 21.90 21.69 21.54 22.06 21.23 21.48 21.97 22.36 22.52 23.72 22.98 22.63 23.84 28.63 29.46 29.17 26.51 25.37 25.09 26.12 26.58 26.30 26.05 29.41 31.44 28.97 29.29 27.78 27.55
31.19 30.76 28.69 24.97 17.65 16.96 17.90 18.50 18.71 17.99 17.68 19.64 20.58 21.11 21.57 21.29 20.32 20.64 20.74 21.56 20.97 22.43 23.43 23.63 23.17 25.02 23.27 27.06 28.85 28.43 26.11 24.24 24.84 25.39 26.26 29.73 28.67 31.09 31.85 28.95 28.12 26.93 27.97
27.46 26.33 23.23 15.28 9.17 12.93 11.59 16.60 16.31 15.25 18.52 20.54 20.48 20.72 20.95 20.65 20.27 20.08 20.67 20.81 20.72 21.68 20.85 21.85 22.17 22.35 23.30 23.26 28.87 29.86 26.89 25.93 25.95 25.92 25.92 26.98 30.69 31.65 32.30 32.57 29.18 29.45 29.75
14.85 6.39 8.07 5.85 6.68 3.85 4.22 9.61 11.13 16.96 18.46 18.87 19.12 19.15 19.44 20.17 21.74 20.76 20.86 21.27 20.79 19.60 19.24 19.45 20.14 21.95 22.68 26.36 27.77 29.63 30.34 30.25 27.10 27.13 28.06 28.23 31.35 31.81 31.95 31.69 33.18 33.56 32.87
5.42 -0.30 0.64 1.20 5.00 1.86 1.78 6.73 13.14 15.37 16.78 16.93 16.86 17.36 18.78 20.24 21.38 20.45 20.62 20.50 19.91 18.89 19.14 19.83 19.65 20.54 23.44 23.91 28.14 29.72 30.07 30.16 27.17 26.81 28.31 31.02 31.40 31.82 31.46 32.28 32.73 32.82 30.17
2.89 -1.78 -4.34 -1.81 2.06 -0.52 -0.42 2.98 9.42 14.73 14.62 14.60 15.32 16.61 17.18 19.15 20.69 21.08 20.77 20.24 19.31 18.93 19.86 19.90 20.39 21.70 23.30 24.01 25.12 25.54 25.49 28.19 27.98 28.79 27.65 29.25 30.62 31.44 30.22 29.56 29.58 29.56 30.18
-0.28 -4.36 -4.42 -4.65 0.69 0.07 1.10 2.33 7.39 11.44 12.16 14.00 14.96 16.02 17.62 17.26 17.79 19.70 19.65 20.29 21.93 23.17 22.90 23.88 23.05 22.26 22.04 24.40 27.92 28.43 27.44 28.36 29.51 29.73 28.57 26.56 26.03 26.07 26.16 26.18 26.56 27.73 28.53
-2.08 -3.42 -3.01 -7.48 0.12 -1.44 0.38 1.44 1.14 9.01 10.20 12.19 14.91 15.35 17.82 17.02 18.09 18.73 18.88 24.39 26.33 27.49 27.69 27.52 26.15 25.26 27.62 28.89 29.39 29.94 30.17 30.48 30.84 28.06 25.86 25.15 25.44 25.42 25.06 24.61 24.92 25.80 26.65
MSLP
1017.02 1017.55 1018.13 1018.71 1019.35 1019.89 1020.42 1020.89 1021.36 1021.87 1022.32 1022.96 1023.46 1023.81 1024.01 1024.16 1024.31 1024.37 1024.36 1024.43 1024.51 1024.58 1024.74 1024.98 1025.09 1025.18 1025.24 1025.27 1024.97 1024.76 1024.63 1024.18 1023.63 1023.09 1022.65 1022.64 1022.32 1022.14 1022.15 1021.82 1021.48 1021.24 1020.87
1017.39 1017.92 1018.50 1019.03 1019.54 1020.06 1020.52 1020.92 1021.30 1021.85 1022.36 1022.74 1023.15 1023.44 1023.80 1024.14 1024.28 1024.49 1024.60 1024.63 1024.66 1024.73 1024.90 1025.18 1025.36 1025.38 1025.40 1025.39 1025.36 1025.32 1025.36 1025.13 1024.63 1024.70 1024.62 1024.06 1022.88 1022.44 1022.23 1022.10 1021.95 1021.94 1021.37
1017.66 1018.20 1018.79 1019.33 1019.80 1020.29 1020.65 1021.08 1021.51 1022.02 1022.53 1022.96 1023.41 1023.82 1024.04 1024.35 1024.62 1024.76 1024.85 1024.73 1024.73 1024.83 1024.97 1025.20 1025.40 1025.50 1025.52 1025.64 1025.71 1025.71 1025.77 1025.93 1025.51 1025.25 1025.48 1025.36 1025.40 1024.71 1022.93 1022.57 1022.63 1022.41 1022.20
1018.04 1018.44 1018.95 1019.58 1020.11 1020.49 1020.91 1021.21 1021.63 1022.10 1022.52 1022.80 1023.26 1023.68 1024.16 1024.51 1024.67 1024.70 1024.78 1024.85 1024.83 1024.89 1025.03 1025.18 1025.38 1025.55 1025.67 1025.76 1025.79 1025.88 1026.19 1026.31 1026.37 1026.07 1025.82 1025.94 1026.17 1026.06 1024.75 1023.36 1023.12 1022.74 1022.46
1018.48 1018.77 1019.15 1019.59 1020.10 1020.57 1021.13 1021.53 1022.02 1022.53 1022.94 1023.20 1023.49 1023.91 1024.36 1024.59 1024.72 1024.86 1024.99 1025.12 1025.13 1025.07 1025.10 1025.18 1025.31 1025.46 1025.66 1025.79 1025.89 1026.09 1026.35 1026.44 1026.62 1026.70 1026.68 1026.58 1026.48 1026.46 1026.55 1025.42 1023.96 1023.31 1022.83
1018.66 1018.99 1019.43 1019.95 1020.50 1021.08 1021.68 1022.08 1022.47 1022.92 1023.10 1023.31 1023.62 1023.92 1024.33 1024.68 1024.95 1025.11 1025.29 1025.41 1025.49 1025.47 1025.37 1025.35 1025.52 1025.61 1025.73 1025.81 1025.92 1026.05 1026.27 1026.39 1026.41 1026.57 1026.75 1026.79 1026.84 1026.85 1026.87 1026.67 1025.12 1024.45 1023.47
1019.20 1019.52 1019.61 1020.12 1020.81 1021.47 1022.02 1022.44 1022.79 1023.32 1023.54 1023.73 1023.97 1024.21 1024.46 1024.71 1024.98 1025.24 1025.44 1025.54 1025.61 1025.57 1025.49 1025.46 1025.53 1025.66 1025.70 1025.80 1025.95 1026.13 1026.27 1026.36 1026.45 1026.47 1026.53 1026.63 1026.70 1026.69 1026.79 1026.92 1026.73 1025.90 1024.12
1020.09 1020.23 1020.39 1020.62 1021.10 1021.64 1022.16 1022.55 1022.96 1023.37 1023.60 1023.83 1024.22 1024.57 1024.82 1025.01 1025.21 1025.36 1025.49 1025.62 1025.73 1025.71 1025.51 1025.48 1025.45 1025.39 1025.40 1025.53 1025.73 1025.87 1025.99 1026.09 1026.13 1026.16 1026.25 1026.29 1026.36 1026.50 1026.56 1026.62 1026.75 1026.51 1025.53
1020.87 1020.72 1020.76 1021.02 1021.36 1021.79 1022.29 1022.63 1023.05 1023.49 1023.88 1024.23 1024.50 1024.71 1024.90 1025.12 1025.28 1025.39 1025.50 1025.53 1025.49 1025.31 1025.20 1025.31 1025.31 1025.28 1025.32 1025.35 1025.45 1025.72 1025.74 1025.72 1025.66 1025.61 1025.75 1025.80 1025.69 1025.83 1025.96 1026.04 1026.23 1026.33 1026.21
1021.56 1021.48 1021.35 1021.52 1021.79 1022.13 1022.58 1023.02 1023.50 1024.08 1024.41 1024.62 1024.77 1024.94 1025.05 1025.12 1025.19 1025.23 1025.30 1025.34 1025.25 1025.28 1025.25 1025.20 1025.19 1025.21 1025.20 1025.22 1025.24 1025.26 1025.24 1025.39 1025.32 1025.39 1025.43 1025.38 1025.34 1025.30 1025.35 1025.46 1025.53 1025.65 1025.67
1022.33 1022.10 1022.26 1022.26 1022.52 1022.74 1023.09 1023.59 1024.00 1024.43 1024.74 1024.93 1025.08 1025.10 1025.22 1025.30 1025.35 1025.33 1025.29 1025.18 1025.08 1025.05 1025.05 1025.04 1025.00 1024.89 1024.76 1024.67 1024.87 1024.98 1025.01 1025.11 1025.04 1024.95 1024.88 1024.84 1024.86 1024.85 1024.83 1024.78 1024.82 1024.96 1025.06
1023.22 1022.67 1022.78 1022.98 1023.13 1023.49 1023.71 1024.04 1024.48 1024.79 1024.98 1025.05 1025.13 1025.34 1025.44 1025.41 1025.35 1025.25 1025.05 1024.86 1024.85 1024.72 1024.70 1024.68 1024.67 1024.59 1024.42 1024.29 1024.39 1024.43 1024.62 1024.65 1024.60 1024.49 1024.46 1024.21 1024.06 1024.03 1024.04 1024.10 1024.10 1024.06 1024.08
1023.74 1023.85 1023.81 1023.74 1023.91 1024.10 1024.25 1024.55 1024.80 1025.02 1025.16 1025.20 1025.34 1025.40 1025.47 1025.45 1025.41 1025.36 1025.22 1024.95 1024.78 1024.63 1024.49 1024.43 1024.45 1024.41 1024.22 1024.01 1023.88 1023.80 1023.69 1023.91 1023.81 1023.74 1023.64 1023.55 1023.55 1023.26 1023.33 1023.30 1023.31 1023.25 1023.17
1024.21 1024.68 1024.75 1024.58 1024.55 1024.66 1024.72 1024.94 1025.18 1025.23 1025.37 1025.52 1025.58 1025.63 1025.68 1025.75 1025.50 1025.31 1025.17 1024.94 1024.61 1024.41 1024.27 1024.17 1024.05 1024.07 1023.79 1023.54 1023.36 1023.25 1023.05 1022.97 1022.96 1022.80 1022.76 1022.67 1022.64 1022.52 1022.44 1022.56 1022.54 1022.54 1022.52
1024.87 1025.20 1025.26 1025.12 1025.02 1025.00 1025.18 1025.44 1025.66 1025.89 1025.73 1025.86 1025.89 1025.84 1025.71 1025.66 1025.47 1025.27 1025.06 1024.85 1024.57 1024.26 1024.11 1023.94 1023.72 1023.56 1023.30 1022.94 1022.62 1022.56 1022.27 1022.20 1021.92 1021.89 1021.70 1021.61 1021.62 1021.49 1021.46 1021.55 1021.54 1021.76 1021.87
1025.25 1025.50 1025.50 1025.56 1025.72 1025.75 1025.79 1025.90 1026.08 1026.23 1025.92 1025.94 1025.94 1025.78 1025.65 1025.64 1025.43 1025.22 1025.02 1024.75 1024.43 1024.19 1023.96 1023.68 1023.41 1023.12 1022.81 1022.38 1022.01 1021.88 1021.59 1021.26 1020.96 1020.78 1020.67 1020.59 1020.60 1020.48 1020.32 1020.30 1020.25 1020.42 1020.67
1025.63 1026.14 1026.21 1026.21 1026.29 1026.27 1026.37 1026.52 1026.71 1026.48 1026.25 1026.16 1026.11 1025.98 1025.76 1025.62 1025.38 1025.15 1024.93 1024.72 1024.41 1024.12 1023.79 1023.39 1023.01 1022.66 1022.33 1021.95 1021.48 1021.09 1020.67 1020.26 1020.09 1020.08 1019.98 1019.83 1019.73 1019.69 1019.63 1019.58 1019.34 1019.10 1018.94
1025.95 1026.18 1026.28 1026.68 1026.66 1026.73 1026.80 1026.95 1026.60 1026.55 1026.42 1026.37 1026.16 1025.86 1025.61 1025.39 1025.11 1024.92 1024.66 1024.35 1024.20 1023.86 1023.45 1023.03 1022.70 1022.27 1021.85 1021.30 1020.69 1020.28 1020.08 1019.84 1019.64 1019.55 1019.41 1019.20 1018.99 1018.95 1018.84 1018.80 1018.58 1018.42 1018.34
1025.81 1025.98 1026.24 1026.74 1026.96 1027.17 1027.30 1027.13 1026.80 1026.76 1026.59 1026.24 1025.83 1025.53 1025.31 1025.06 1024.88 1024.69 1024.44 1024.13 1023.87 1023.52 1023.07 1022.60 1022.15 1021.70 1021.21 1020.75 1020.25 1019.70 1019.44 1019.14 1018.90 1018.77 1018.63 1018.38 1018.02 1017.83 1017.68 1017.48 1017.35 1017.28 1017.20
1025.59 1025.95 1026.50 1027.12 1027.55 1027.74 1027.53 1027.33 1027.05 1026.77 1026.31 1025.98 1025.60 1025.26 1025.06 1024.79 1024.57 1024.33 1024.02 1023.75 1023.51 1023.01 1022.45 1021.99 1021.57 1021.13 1020.54 1020.11 1019.58 1019.22 1018.87 1018.53 1018.21 1017.92 1017.60 1017.26 1016.84 1016.57 1016.23 1016.18 1016.28 1016.11 1016.09
1026.09 1026.67 1027.24 1027.71 1027.97 1028.01 1027.88 1027.61 1027.19 1026.78 1026.24 1025.76 1025.43 1025.12 1024.84 1024.56 1024.25 1023.92 1023.62 1023.36 1023.01 1022.51 1022.06 1021.62 1021.08 1020.57 1020.03 1019.47 1018.82 1018.40 1017.95 1017.68 1017.31 1016.83 1016.37 1016.07 1015.82 1015.50 1015.12 1014.92 1014.92 1014.94 1015.27
1027.26 1027.64 1028.16 1028.38 1028.57 1028.43 1028.43 1027.96 1027.54 1026.66 1026.08 1025.58 1025.22 1024.94 1024.64 1024.28 1023.77 1023.46 1023.13 1022.76 1022.46 1022.11 1021.62 1021.17 1020.57 1019.85 1019.22 1018.69 1018.14 1017.59 1016.95 1016.43 1016.05 1015.78 1015.42 1015.07 1014.75 1014.32 1014.01 1013.82 1013.82 1013.78 1013.76
1028.77 1028.64 1029.03 1029.22 1029.05 1028.93 1028.78 1028.39 1027.20 1026.51 1025.80 1025.49 1025.16 1024.80 1024.34 1023.89 1023.53 1023.15 1022.67 1022.31 1022.01 1021.66 1021.09 1020.53 1019.84 1019.06 1018.44 1017.92 1017.35 1016.68 1016.10 1015.60 1015.15 1014.74 1014.34 1013.94 1013.58 1013.24 1012.94 1012.74 1012.68 1012.54 1012.73
1029.50 1029.25 1029.67 1030.15 1029.56 1029.01 1028.52 1027.98 1027.11 1026.41 1025.91 1025.44 1024.96 1024.48 1024.06 1023.48 1022.95 1022.61 1022.19 1021.89 1021.61 1021.19 1020.39 1019.63 1018.89 1018.23 1017.66 1017.10 1016.51 1015.88 1015.30 1014.72 1014.23 1013.76 1013.31 1012.91 1012.59 1012.32 1012.01 1011.95 1011.93 1011.89 1012.03
1029.28 1029.36 1029.89 1029.98 1029.22 1028.65 1028.20 1027.35 1026.81 1026.44 1025.84 1025.31 1024.70 1024.06 1023.52 1023.09 1022.58 1022.06 1021.64 1021.31 1020.91 1020.32 1019.15 1018.43 1018.01 1017.46 1016.80 1016.21 1015.47 1014.72 1014.16 1013.81 1013.26 1012.69 1012.36 1012.17 1011.98 1011.73 1011.57 1011.40 1011.28 1011.23 1011.21
1029.22 1029.55 1029.32 1029.26 1028.71 1028.28 1027.74 1027.00 1026.43 1026.25 1025.69 1025.10 1024.31 1023.71 1023.12 1022.57 1022.10 1021.58 1020.85 1020.32 1019.90 1019.13 1018.36 1017.73 1017.16 1016.57 1015.91 1015.11 1014.50 1013.88 1013.24 1012.61 1012.04 1011.83 1011.67 1011.47 1011.17 1010.73 1010.66 1010.57 1010.43 1010.37 1010.34
Wind_Speed
4 7 7 7 8 7 8 8 8 6 5 2 3 2 2 1 1 1 3 3 3 4 5 3 4 4 4 4 5 4 5 4 9 3 4 3 2 5 4 4 4 8 10
4 5 7 7 7 8 7 8 7 7 4 3 2 2 3 2 1 1 1 2 3 3 3 4 3 4 3 5 5 5 3 4 6 4 1 5 5 5 5 4 6 8 8
7 7 8 7 7 8 9 8 7 7 4 4 4 3 3 3 2 1 0 1 2 2 3 3 3 3 3 3 3 4 5 3 4 7 3 3 2 5 4 5 4 8 7
4 5 8 7 8 7 6 7 7 7 6 6 3 3 3 3 1 2 1 1 1 1 2 2 2 3 2 3 2 3 2 2 3 3 4 3 1 2 6 3 4 6 8
5 7 7 7 6 7 7 7 7 7 5 5 5 4 3 1 1 2 2 2 3 1 1 1 1 1 1 1 1 2 3 1 2 1 1 3 3 2 0 5 5 4 5
3 6 6 7 6 6 6 6 7 5 6 6 6 6 5 4 2 1 1 1 2 2 2 1 1 0 1 1 0 1 1 1 1 1 1 2 1 1 1 2 5 5 4
4 5 8 8 7 7 7 6 7 6 5 6 5 5 4 3 2 1 1 0 1 1 3 1 2 2 2 2 1 2 2 2 2 2 2 2 3 2 2 2 3 4 4
7 2 3 6 7 7 7 7 7 6 6 5 5 4 4 3 2 1 1 1 1 2 3 3 3 4 3 3 3 2 3 4 3 4 4 3 3 3 3 3 3 3 3
7 6 5 5 6 7 7 7 7 5 4 6 5 5 4 4 2 2 0 1 3 3 4 4 4 4 4 4 4 3 4 4 3 4 5 4 4 3 4 4 4 4 2
8 8 5 4 4 6 5 7 7 7 6 6 5 4 3 2 1 1 2 3 4 3 5 5 5 5 5 5 4 4 4 5 4 4 5 5 3 5 4 4 4 4 5
5 6 6 6 7 8 8 8 8 8 6 5 3 3 3 4 3 2 2 3 3 5 5 5 5 6 5 5 5 5 6 6 6 5 6 7 5 4 4 4 4 4 5
4 7 8 9 10 10 9 8 7 6 5 4 4 4 4 5 5 5 5 4 5 4 5 5 5 6 6 5 6 6 6 6 7 7 6 8 6 6 6 5 6 6 6
7 7 7 8 8 8 8 6 5 5 5 5 5 6 6 6 6 5 6 5 5 5 4 5 5 6 6 6 6 6 6 7 7 7 7 8 6 8 5 5 6 5 6
5 4 4 5 5 5 5 5 5 5 5 5 5 6 5 6 5 5 5 5 5 5 5 5 5 5 6 6 6 6 7 7 8 8 9 8 9 10 8 7 8 7 7
5 5 4 4 4 5 5 5 5 5 5 5 5 5 5 6 6 6 6 6 6 6 6 6 6 6 6 5 5 7 8 10 9 10 10 10 13 19 16 8 7 7 7
4 4 3 5 4 4 4 4 5 5 5 5 6 5 6 6 6 6 6 6 6 6 6 7 7 7 6 15 20 18 12 12 12 11 10 10 17 18 23 24 25 16 9
5 2 2 1 1 0 1 2 4 4 5 5 5 6 5 6 5 6 6 7 6 6 8 8 7 8 8 19 21 21 12 11 9 9 9 9 8 14 12 18 24 23 26
2 2 2 3 3 1 3 2 3 3 4 5 5 5 5 6 6 7 7 6 6 8 8 7 8 9 9 20 21 21 12 11 10 10 10 11 12 12 14 12 14 14 13
2 2 1 1 2 3 3 2 4 5 5 5 5 5 5 7 7 7 7 7 7 7 7 8 8 9 9 18 21 19 10 10 12 10 11 12 13 18 23 16 14 13 13
1 2 2 2 1 3 3 2 4 4 5 5 7 6 7 7 7 8 8 7 6 8 7 9 9 13 11 17 20 16 8 10 9 11 12 22 19 24 25 15 12 13 12
4 5 3 1 3 4 4 5 5 6 6 6 8 7 7 7 7 7 6 6 7 8 8 10 10 10 12 12 21 20 10 8 9 10 9 9 22 23 24 24 12 13 11
4 2 3 3 5 4 2 5 6 6 7 7 7 7 8 7 7 7 7 8 7 7 8 8 9 8 9 16 17 20 21 20 11 10 8 10 21 23 23 19 19 23 20
3 2 1 4 6 5 2 6 5 7 6 7 8 8 8 9 8 8 8 6 6 6 7 7 8 9 8 8 19 22 23 22 14 9 14 23 24 25 21 23 22 21 10
3 1 2 4 6 4 4 6 7 7 6 7 8 7 7 8 6 6 6 6 6 7 8 8 9 8 7 8 8 9 10 17 14 16 13 15 19 21 17 14 12 8 8
3 1 3 4 7 6 7 6 6 6 6 7 7 7 6 7 7 7 7 6 8 10 9 7 7 8 8 9 18 18 10 9 11 15 8 7 8 8 8 8 8 7 7
3 4 5 4 7 6 7 7 4 5 5 6 6 5 6 6 6 6 8 14 15 20 22 21 15 9 19 23 24 24 23 24 24 9 5 6 8 7 8 8 8 7 11
Wind_Direction
188 163 161 149 133 139 147 156 146 156 137 118 117 99 161 133 112 181 157 135 110 86 76 57 43 30 41 19 14 345 359 348 355 357 359 345 40 20 23 8 5 12 9
147 147 140 140 156 155 158 150 153 153 155 121 134 130 143 148 130 132 119 119 121 107 102 84 56 42 42 32 29 34 1 355 9 33 320 360 333 10 5 2 6 6 2
174 158 150 158 148 159 161 154 149 146 127 107 96 67 65 58 62 67 101 211 143 116 102 106 99 67 56 37 30 30 46 19 355 25 67 14 339 326 326 356 3 7 353
125 140 154 154 167 170 141 134 135 133 129 138 122 132 139 150 184 172 181 132 120 136 137 127 99 76 68 43 19 57 61 72 32 357 20 46 112 0 328 334 334 354 344
194 175 167 156 162 144 151 138 125 110 101 94 106 109 101 90 83 65 99 48 18 67 140 150 145 124 85 58 41 29 31 50 112 106 33 13 7 32 5 296 317 339 331
172 142 129 131 122 113 118 122 117 109 113 110 108 118 129 130 112 89 76 6 348 335 350 300 209 264 326 315 280 182 201 203 196 158 173 181 178 203 152 286 314 314 294
89 168 152 156 135 135 132 128 124 112 104 101 97 104 113 115 122 120 158 263 333 320 306 301 249 244 254 269 268 278 275 252 218 229 232 205 218 189 198 202 265 311 312
31 71 128 128 135 140 142 130 129 127 132 127 108 75 69 68 62 54 63 321 274 281 291 294 278 273 271 255 247 232 237 223 229 239 235 246 231 214 203 200 189 296 297
24 40 117 137 147 141 144 143 140 133 108 82 78 73 74 65 52 18 331 294 282 270 286 284 280 274 264 263 260 249 263 263 249 238 240 238 245 227 226 212 194 182 258
17 5 25 132 118 114 106 97 88 87 82 76 72 79 81 79 39 19 319 295 297 288 299 298 285 279 269 262 262 268 262 260 261 260 250 244 236 244 223 219 212 200 212
26 34 34 48 73 80 83 85 80 84 80 83 79 55 16 359 354 324 301 307 305 303 294 285 283 277 274 265 257 260 268 255 263 249 241 252 229 230 236 220 214 219 209
23 58 74 77 82 86 82 80 79 79 77 67 46 18 360 350 349 338 321 302 283 282 275 278 272 269 266 262 254 259 263 249 253 259 251 256 259 239 224 219 227 220 214
59 55 54 77 83 87 90 87 77 63 42 31 16 2 355 351 337 324 318 315 304 293 281 269 266 268 266 266 255 250 251 245 244 244 236 249 240 257 247 230 242 237 234
72 70 77 86 90 82 78 70 52 41 29 17 5 350 337 321 318 316 313 312 312 311 305 295 286 272 268 262 260 258 258 252 256 247 242 238 239 247 247 241 239 238 246
147 154 163 118 94 78 62 48 35 14 13 3 354 335 320 317 318 320 319 314 310 304 295 293 286 282 283 278 279 257 254 257 257 249 250 244 243 250 248 246 241 228 240
177 214 165 101 80 64 43 24 5 352 4 357 334 321 324 318 316 314 307 303 300 297 295 290 282 284 282 290 293 290 283 279 267 256 252 244 257 261 258 258 256 234 225
199 183 167 216 210 173 44 358 325 328 344 332 316 309 308 304 302 301 300 302 300 296 297 285 270 273 269 287 290 287 279 278 282 279 278 273 257 256 249 258 264 264 261
230 260 292 297 268 346 19 308 342 334 325 295 281 288 291 296 304 304 299 292 293 295 293 282 282 282 283 292 292 295 290 282 279 273 270 266 265 258 257 246 241 241 245
229 274 199 314 323 332 321 343 339 318 300 287 288 292 297 301 301 296 295 289 286 286 283 283 284 280 279 289 291 292 287 274 271 267 264 262 261 259 262 259 250 237 239
267 272 107 136 35 312 337 333 291 292 299 302 304 300 295 294 295 290 289 285 278 287 294 295 289 285 290 291 293 292 275 271 269 265 260 263 264 263 260 252 246 249 245
63 67 86 40 268 325 356 320 320 305 294 294 294 294 293 288 278 271 276 282 282 285 283 287 285 280 277 280 289 290 280 270 265 261 260 253 261 269 269 269 247 243 240
29 19 9 316 298 315 16 301 289 281 297 296 297 296 292 291 296 293 289 286 281 276 279 281 283 278 274 281 287 290 286 281 275 270 259 256 266 270 272 271 265 263 256
318 317 241 300 303 297 232 275 276 309 304 303 295 291 292 294 291 287 283 285 284 277 285 283 282 281 282 275 282 290 291 289 285 275 268 271 271 268 267 272 273 265 246
270 242 331 295 296 277 271 239 291 306 294 284 284 285 281 287 284 291 281 278 278 277 276 277 276 277 279 280 276 271 276 280 280 276 274 268 267 265 260 260 259 244 239
291 249 280 276 284 294 296 287 291 294 281 282 280 280 284 282 283 281 276 270 262 264 283 287 291 295 287 281 288 297 290 283 267 274 262 252 257 255 252 251 246 236 231
276 307 294 270 277 285 282 282 268 279 270 289 288 283 292 288 278 280 296 290 284 298 308 304 304 294 297 302 303 304 303 302 304 304 305 288 263 245 245 243 244 236 236